Regional Weather Roundup
Issued by NWS

Home | Current Version | Previous Version | Text Only | Print | Product List | Glossary On
Versions: 1 2 3 4 5 6 7 8 9 10 11 12 13 14 15 16 17 18 19 20 21 22 23 24 25 26 27 28 29 30 31 32 33 34 35 36 37 38 39 40 41 42 43 44 45 46 47 48 49 50
583
ASUS43 KMPX 040310
RWRMN
WEATHER ROUNDUP FOR MINNESOTA
NATIONAL WEATHER SERVICE TWIN CITIES/CHANHASSEN MN
1000 PM CDT TUE MAY 03 2016


NOTE: "FAIR" INDICATES FEW OR NO CLOUDS BELOW 12,000 FEET WITH NO
SIGNIFICANT WEATHER AND/OR OBSTRUCTIONS TO VISIBILITY. N/A MEANS
CURRENT SKY AND/OR WEATHER CONDITIONS ARE NOT AVAILABLE.

MNZ060>063-068>070-040400-
   Twin Cities Metro

CITY           SKY/WX    TMP DP  RH WIND       PRES   REMARKS
TWIN CITIES    CLEAR     62  25  24 N16G23    29.75R
ST PAUL        CLEAR     61  28  28 NW13      29.75R
CRYSTAL        CLEAR     62  26  25 NW12G20   29.75R
BLAINE         CLEAR     59  28  31 NW14      29.77R
EDEN PRAIRIE   CLEAR     62  25  24 N13G23    29.74R
SOUTH ST PAUL  CLEAR     62  27  26 N9G16     29.74R
LAKE ELMO      FAIR      59  30  33 N7        29.75R
$$
MNZ001>005-007-008-013>017-022>024-027-028-040400-
   Northwest Minnesota

CITY           SKY/WX    TMP DP  RH WIND       PRES   REMARKS
BEMIDJI        CLEAR     51  32  48 N6        29.91R
HALLOCK        CLEAR     50  28  43 N10       30.00R
ROSEAU         CLEAR     48  37  66 N8        29.97R
WARROAD        CLEAR     52  39  62 N6        29.96R
THIEF RVR FALL CLEAR     52  34  50 NW12      29.97R
CROOKSTON      CLEAR     52  28  40 N14       29.97R
FOSSTON        CLEAR     45  30  57 N8        29.94R
DETROIT LAKES  CLEAR     54  32  43 N12G20    29.92R
MOORHEAD       CLEAR     55  28  35 N13       29.94R
PARK RAPIDS    CLEAR     56  30  37 N14G24    29.89R
MAHNOMEN       FAIR      52  33  49 N13       29.92R
$$
MNZ006-009>011-018-025>026-040400-
   North Central Minnesota

CITY           SKY/WX    TMP DP  RH WIND       PRES   REMARKS
BAUDETTE       CLEAR     48  31  51 N6        29.94R
FLAG ISLAND    CLEAR     52  37  58 N5        29.95R
INTL FALLS     CLEAR     48  32  53 N3        29.92R
WASKISH        CLEAR     50  36  57 N6        29.93R
BIG FORK       CLEAR     52  30  43 N6        29.90R
LONGVILLE      CLEAR     54  32  43 N6        29.87R
GRAND RAPIDS   CLEAR     52  28  40 N13G23    29.89R
CRANE LAKE     CLEAR     46  30  53 CALM        N/A
ORR            CLEAR     46  28  49 CALM      29.87S
COOK           CLEAR     46  30  53 CALM      29.89R
WALKER         FAIR      53  32  46 N12G18    29.89R
$$
MNZ012-019>021-037-040400-
   Northeast Minnesota

CITY           SKY/WX    TMP DP  RH WIND       PRES   REMARKS
DULUTH         CLEAR     52  32  46 N13G25    29.83R
ELY            CLEAR     46  28  49 N3        29.86R
HIBBING        CLEAR     48  29  47 N9        29.87R
EVELETH        CLEAR     50  30  46 N9        29.87R
DULUTH HARBOR  CLEAR     50  36  57 N24       29.83R
TWO HARBORS    CLEAR     54  37  54 N10G18    29.81R
SILVER BAY     CLEAR     52  30  43 N9        29.82R
GRAND MARAIS     N/A     48  32  53 VRB5      29.81S
G MARAIS ARPRT CLEAR     39  28  65 NW6       29.81S
$$
MNZ029>031-032-039>041-046>048-054>057-064-040400-
   West Central Minnesota

CITY           SKY/WX    TMP DP  RH WIND       PRES   REMARKS
FERGUS FALLS   CLEAR     54  28  37 N12       29.88R
WHEATON        CLEAR     57  30  35 N10       29.93R
MORRIS         CLEAR     57  27  30 N16       29.87R
ALEXANDRIA     CLEAR     55  29  36 N12       29.88R
ELBOW LAKE     FAIR      56  32  38 NW14      29.89S
WADENA         CLEAR     54  30  40 N8        29.88R
GLENWOOD       CLEAR     54  28  37 N9        29.87R
APPLETON       CLEAR     59  25  27 N16       29.87R
BENSON         CLEAR     55  23  28 N8        29.86R
ORTONVILLE     CLEAR     57  27  30 N15       29.89R
MADISON        CLEAR     57  27  30 N15       29.89R
WILLMAR        FAIR      57  30  35 NW13      29.85R
$$
MNZ033>034-036-042>043-049>051-058-059-040400-
   Central Minnesota

CITY           SKY/WX    TMP DP  RH WIND       PRES   REMARKS
ST CLOUD       CLEAR     56  26  31 N9        29.81R
SAUK CENTRE    FAIR      56  28  34 N13       29.85R
PAYNESVILLE    CLEAR     56  25  29 N8        29.84R
AITKIN         CLEAR     57  27  30 N9        29.83R
PINE RIVER     CLEAR     55  36  47 N10       29.90R
STAPLES        CLEAR     54  27  35 N9        29.87R
LONG PRAIRIE   FAIR      54  30  40 NW6       29.87R
LITTLE FALLS   CLEAR     55  27  33 NW9       29.84R
LITCHFIELD     CLEAR     59  27  29 N13G18    29.83R
BUFFALO        CLEAR     59  26  29 NW13      29.80R
MAPLE LAKE     CLEAR     59  29  32 N12G20    29.82R
HUTCHINSON     CLEAR     59  30  33 N10G18    29.82R
$$
MNZ037-044-045-052-053-040400-
   East Central Minnesota

CITY           SKY/WX    TMP DP  RH WIND       PRES   REMARKS
PRINCETON      CLEAR     55  27  33 NW8       29.80R
MORA           CLEAR     55  28  35 N6        29.82R
CAMBRIDGE      CLEAR     61  37  41 N7        29.77R
RUSH CITY      MOCLDY    56  30  37 N10       29.78R
MOOSE LAKE     PTCLDY    54  30  40 N14G20    29.81R
HINCKLEY       CLOUDY    55  32  41 N9G17     29.79R
CLOQUET        CLEAR     54  30  40 N10G21    29.83R
MCGREGOR       CLEAR     55  34  44 N16G23    29.84R
$$
MNZ071>073-080-081-089-090-097-098-040400-
   Southwest Minnesota

CITY           SKY/WX    TMP DP  RH WIND       PRES   REMARKS
MONTEVIDEO     CLEAR     55  28  35 N14       29.87R
GRANITE FALLS  CLEAR     59  31  35 NW8       29.86R
CANBY          CLEAR     59  32  36 NW12      29.89R
MARSHALL       CLEAR     58  30  34 N13       29.86R
REDWOOD FALLS  CLEAR     60  25  26 N15G22    29.81R
OLIVIA         CLEAR     55  28  35 N15       29.82R
PIPESTONE      CLEAR     57  27  30 N10       29.87S
WINDOM         CLEAR     57  28  33 NW14      29.82R
WORTHINGTON    CLEAR     55  35  47 N17       29.84R
JACKSON        CLEAR     59  27  29 NW20G25   29.81S
TRACY          CLEAR     59  31  34 N14       29.85R
SLAYTON        CLEAR     56  31  39 N14       29.86R
$$
MNZ065>067-074>077-082>085-091>093-040400-
   South Central Minnesota

CITY           SKY/WX    TMP DP  RH WIND       PRES   REMARKS
MANKATO        CLEAR     61  28  29 N15       29.76R
NEW ULM        CLEAR     61  27  27 NW22      29.77R
ST JAMES       PTCLDY    54  23  30 NW18      29.79R
FAIRMONT       PTCLDY    59  19  21 NW15G21   29.77R
GLENCOE        CLEAR     59  31  35 N10G17    29.78R
FARIBAULT      CLEAR     63  30  29 N9        29.74R
OWATONNA       CLEAR     59  30  33 N12       29.74R
WASECA         CLEAR     59  32  36 N15       29.75R
ALBERT LEA     CLEAR     63  28  27 N13G22    29.72R
$$
MNZ078>079-086>088-094>096-040400-
   Southeast Minnesota

CITY           SKY/WX    TMP DP  RH WIND       PRES   REMARKS
ROCHESTER      PTCLDY    57  44  62 N16       29.71R
RED WING       CLEAR     61  28  29 N6        29.71R
STANTON        CLEAR     60  28  29 N12       29.72R
DODGE CENTER   CLEAR     57  34  41 N14       29.72R
WINONA         CLOUDY    57  45  62 CALM      29.69R
AUSTIN         CLEAR     59  39  47 N8        29.71R
PRESTON        MOCLDY    54  43  66 N3        29.69R
$$
ABBREVIATIONS USED IN REMARKS
   TC - TEMPERATURES IN CELSIUS
  WCI - WIND CHILL INDEX
   HX - HEAT INDEX
  VSB - VISIBILITY
$$




USA.gov is the U.S. government's official web portal to all federal, state and local government web resources and services.